Location: Most
(50.5133°N, 13.6207°E)
Time: 12:35:21
(UTC+01:00)

Tiangong - Visible Passes

Search period start: 29 November 2022 00:00
Search period end: 09 December 2022 00:00
Orbit: 385 x 393 km, 41.5° (Epoch: 29 November)

Date Brightness Start Highest point End Pass type
(mag) Time Alt. Az. Time Alt. Az. Time Alt. Az.
01 Dec 0.9 18:44:24 10° SSW 18:44:30 10° SSW 18:44:30 10° SSW visible
02 Dec 0.5 17:47:11 10° S 17:48:10 11° SSE 17:49:04 10° SE visible
03 Dec 0.3 18:24:18 10° SSW 18:25:54 15° S 18:25:54 15° S visible
04 Dec 0.4 17:26:31 10° SSW 17:28:16 14° SSE 17:30:02 10° SE visible
04 Dec 1.1 19:02:26 10° SW 19:02:41 11° SW 19:02:41 11° SW visible
05 Dec 0.2 18:04:16 10° SW 18:06:23 17° S 18:07:09 15° SSE visible
06 Dec 0.4 17:06:12 10° SW 17:08:14 16° S 17:10:18 10° SE visible
06 Dec 0.7 18:42:43 10° SW 18:43:55 13° SSW 18:43:55 13° SSW visible
07 Dec 0.5 17:44:16 10° SW 17:46:17 16° S 17:48:18 10° SSE visible
08 Dec 0.5 16:45:58 10° SW 16:48:04 16° S 16:50:10 10° SE visible
08 Dec 0.8 18:23:18 10° SW 18:24:13 11° SSW 18:25:08 10° S visible
